Presure
124 105 136 157 174 157 135 131 124 118 126 106 121 115 120 127 125 128 165 143 132 122 131 185 127 106 158 120 160 130 186 159 111 136 150 124 153 154 145 136 126 141 170
124 129 121 143 159 150 124 102 112 100 106 113 149 100 113 144 118 127 134 133 133 137 123 122 120 110 138 130 134 112 174 195 117 138 162 144 177 172 145 158 171 178 167
141 125 117 138 143 128 122 116 99 134 124 118 93 103 111 119 129 132 124 127 126 123 167 135 132 123 135 102 134 92 154 175 164 163 129 151 139 139 110 180 144 120 153
141 130 129 145 138 150 122 98 102 133 102 138 117 119 114 108 117 117 103 129 126 128 119 183 119 111 119 132 157 142 109 183 174 175 166 192 166 173 150 133 132 123 131
136 159 154 157 113 105 149 107 128 104 112 125 115 124 116 111 117 116 128 106 129 110 138 148 101 95 113 168 203 143 170 183 173 163 183 176 173 170 142 167 202 144 140
143 137 124 124 95 117 133 108 107 110 143 84 115 106 118 114 109 92 123 115 100 110 141 147 98 110 152 174 171 196 155 190 141 169 173 182 166 164 163 167 149 182 141
136 112 113 166 135 81 159 166 115 104 91 86 124 113 122 112 88 85 121 111 126 137 126 143 124 143 150 155 161 178 187 200 179 170 166 188 154 170 136 145 182 181 178
104 98 117 151 88 115 155 167 99 96 93 106 113 129 144 113 106 181 126 86 92 140 112 179 145 167 170 93 133 137 193 100 169 170 161 165 172 171 150 173 156 175 187
116 190 157 158 149 96 176 101 105 104 98 109 105 117 119 182 164 125 144 156 175 160 146 113 137 159 177 183 108 136 188 160 156 169 157 177 167 182 173 173 185 198 185
101 97 145 126 105 106 114 103 105 115 134 119 99 159 200 201 192 151 189 139 171 106 154 100 129 161 155 165 162 137 165 156 120 152 157 181 157 183 149 167 152 157 134
100 102 211 197 141 113 124 113 78 136 101 102 114 161 146 186 204 161 177 141 127 103 122 115 177 158 179 136 119 167 145 146 149 183 181 180 169 170 156 165 189 164 171
115 174 171 226 109 184 170 177 150 119 166 144 149 151 162 175 199 205 205 100 126 128 160 164 161 166 193 172 163 160 147 184 173 189 158 172 182 166 187 147 166 165 184
253 155 136 167 105 122 143 151 140 123 167 194 183 157 185 183 177 158 117 161 144 151 151 183 135 184 151 186 184 160 177 173 184 176 189 170 180 172 176 158 179 173 163
180 90 218 135 125 150 137 131 138 147 173 151 143 130 137 190 187 141 123 163 163 143 176 142 163 206 176 182 197 180 174 191 188 164 191 204 185 171 177 178 188 162 191
169 141 178 136 158 147 135 171 148 148 152 206 204 175 177 130 139 185 120 142 189 124 201 150 193 192 198 189 175 163 193 177 172 191 163 159 199 176 205 205 205 193 193
167 191 124 171 161 163 144 170 179 137 198 168 137 149 137 160 144 189 152 133 189 164 174 129 164 161 192 199 182 196 182 191 199 193 158 163 208 199 179 177 182 179 159
159 174 170 167 130 192 204 163 128 208 155 163 137 190 176 135 181 143 145 182 130 172 194 181 164 188 185 186 195 164 198 198 199 173 162 205 174 172 184 168 183 179 178
194 119 221 211 221 203 212 182 179 157 145 136 133 199 149 144 191 142 176 161 152 195 188 163 202 155 198 194 219 180 179 195 172 165 196 165 185 199 164 184 190 172 173
208 161 184 231 230 176 158 150 190 119 183 163 159 129 199 176 141 153 180 163 169 149 198 166 175 210 187 190 175 182 174 180 204 180 191 177 176 178 169 179 181 178 175
174 171 164 144 130 146 151 134 137 141 132 162 194 167 162 169 151 177 186 186 186 191 202 169 172 191 176 178 176 179 215 194 197 172 195 176 174 175 193 180 170 178 202
167 155 146 275 141 234 135 146 221 180 170 166 179 157 179 196 197 167 193 203 184 187 166 188 197 184 162 210 196 184 192 164 196 190 173 162 189 173 193 155 184 167 176
200 136 144 216 169 154 157 160 171 150 185 183 150 206 187 200 199 174 161 162 170 162 186 198 191 170 190 184 200 167 178 213 179 179 172 170 193 176 174 175 185 199 184
232 228 159 233 185 209 144 210 203 162 186 179 182 186 166 178 164 168 171 174 167 191 184 166 180 171 180 189 197 187 187 174 201 191 194 192 166 180 182 192 203 175 188
228 194 223 229 206 182 181 163 191 187 195 194 161 196 177 170 193 180 201 197 168 190 187 183 172 180 193 165 177 173 161 180 194 185 168 179 202 190 189 185 195 183 182
182 204 196 199 189 185 199 159 201 192 192 194 200 155 179 166 157 171 172 175 176 185 169 202 203 184 170 179 191 193 196 178 205 196 162 189 192 190 196 182 215 194 191
221 156 170 202 219 195 169 200 165 184 197 181 176 164 148 181 194 162 180 191 189 181 214 186 173 188 174 186 189 196 173 185 189 191 187 192 192 182 180 184 183 195 200
Wind_Speed
27 32 28 32 38 33 25 18 17 21 23 26 23 26 28 27 31 34 37 31 37 35 40 43 44 39 46 34 36 48 41 56 29 51 51 58 57 54 38 67 47 67 61
30 30 29 29 35 34 22 26 21 23 28 27 30 28 26 34 29 35 38 37 38 38 33 47 48 32 45 54 52 29 41 37 39 65 41 64 44 45 58 60 48 50 45
34 31 34 32 32 29 24 22 25 22 22 27 30 28 31 31 34 35 34 36 35 33 43 45 37 51 51 29 61 29 43 37 37 39 63 58 76 46 33 39 70 39 79
36 31 31 33 34 35 32 28 29 29 29 31 28 29 31 33 31 34 38 39 37 42 40 44 43 47 58 52 37 49 33 42 39 45 44 39 47 41 68 58 40 41 51
32 49 43 45 33 30 37 32 32 33 33 30 31 30 31 35 33 34 44 41 44 39 49 51 58 50 48 46 50 49 36 36 36 45 35 32 37 42 76 55 40 53 59
40 24 31 35 29 38 36 35 36 36 43 29 35 35 35 37 36 38 41 40 48 36 48 54 28 67 49 44 41 46 46 39 63 42 34 35 44 52 37 49 70 48 69
41 42 36 54 37 26 52 55 38 38 32 30 43 38 40 38 42 42 42 38 49 52 42 52 49 53 49 41 28 44 31 43 30 34 39 36 59 46 78 72 46 46 42
34 33 39 45 24 27 55 60 39 38 33 43 44 47 49 44 49 57 49 47 56 52 56 56 55 58 53 24 56 60 47 43 32 34 39 39 50 45 60 45 63 38 51
38 62 51 56 49 37 57 40 44 44 41 47 46 46 44 60 59 49 53 55 58 52 54 54 41 48 58 58 35 64 44 39 36 37 46 41 43 44 41 41 50 56 49
39 39 51 45 46 47 44 43 47 49 53 47 46 55 68 68 69 51 65 54 60 64 57 64 48 52 45 34 39 66 33 39 52 51 45 58 51 39 70 48 72 68 80
47 46 64 63 52 53 52 47 40 51 52 40 58 54 57 69 65 58 67 41 44 62 57 73 66 53 64 56 65 45 62 54 57 57 59 46 38 34 52 53 55 61 48
57 54 51 69 50 57 60 64 55 57 63 55 52 51 57 63 77 68 54 60 54 48 57 55 50 64 68 57 43 50 55 55 66 65 65 58 50 44 54 82 58 59 55
78 34 45 55 50 58 48 47 52 59 56 73 68 57 64 75 68 55 44 61 49 48 39 71 52 66 53 57 64 51 58 59 59 45 56 43 46 54 48 68 67 39 80
66 54 71 54 56 38 49 59 53 52 61 55 53 57 52 77 77 47 57 68 54 46 74 56 55 76 69 65 75 63 53 72 65 53 68 74 55 73 41 44 67 76 74
53 47 70 57 36 44 62 56 49 54 56 62 72 71 61 46 46 79 79 48 78 55 73 50 80 73 76 76 60 57 75 74 54 81 56 69 83 58 78 83 82 79 80
60 68 60 72 47 57 47 58 64 58 75 64 47 51 49 73 49 76 62 64 75 66 66 74 49 52 71 82 70 85 73 86 85 84 72 70 78 71 68 63 57 64 75
44 70 59 61 57 74 77 54 63 72 57 61 63 79 76 61 77 58 74 79 78 74 84 63 53 82 74 86 85 59 89 87 87 59 68 90 67 54 65 59 63 56 59
76 61 83 75 84 76 81 73 73 57 74 55 57 84 57 58 88 67 79 62 62 94 89 55 94 56 94 93 84 74 66 91 60 67 91 66 72 88 66 73 74 53 54
58 53 69 72 81 72 53 50 78 81 78 73 60 74 88 81 71 63 84 71 73 86 87 71 77 89 86 90 72 80 74 86 94 81 90 67 62 64 66 67 72 67 66
65 63 55 42 61 42 73 56 57 56 71 69 80 86 70 71 62 84 95 98 100 102 100 78 78 102 76 84 84 88 93 97 94 72 90 65 66 66 95 78 66 80 113
55 50 47 56 48 82 59 56 88 80 73 70 81 65 77 95 97 80 101 100 94 97 82 106 107 99 75 107 107 89 101 78 96 90 71 79 101 73 105 77 94 66 79
55 52 57 71 58 58 63 66 76 65 85 87 71 98 91 101 100 86 77 79 87 83 110 110 109 90 105 102 110 79 94 106 81 79 77 78 103 86 82 82 103 114 83
55 56 57 63 68 78 81 92 93 65 87 85 89 90 72 91 87 83 87 93 83 111 103 87 101 97 104 113 111 108 100 88 108 110 111 103 79 93 97 113 112 84 98
61 64 61 66 71 75 76 81 88 88 101 102 79 106 91 84 94 95 114 109 95 112 114 107 96 100 105 94 96 96 88 96 107 96 83 99 113 106 105 98 113 93 85
63 68 67 73 75 76 86 71 99 97 105 107 113 85 92 79 87 90 95 103 105 115 106 122 117 110 100 102 108 108 112 94 118 115 86 110 110 108 116 94 123 116 116
64 67 60 65 80 80 79 94 84 95 111 96 90 92 88 107 121 97 104 120 115 108 111 100 100 106 104 103 104 113 90 97 104 106 104 116 117 105 103 109 106 122 124
Wind_Direction
278 264 277 273 270 277 286 291 287 289 299 300 309 316 323 327 329 331 312 313 337 327 328 307 320 340 318 315 319 307 335 320 326 312 317 331 306 312 320 330 334 326 313
269 271 272 273 273 280 270 274 278 288 297 301 309 301 306 308 324 329 334 332 337 331 325 322 320 329 320 316 316 324 327 341 316 307 310 312 328 329 310 306 324 320 330
264 261 262 271 270 267 269 270 285 283 288 291 290 303 311 320 327 326 326 326 325 317 310 333 329 321 317 334 309 328 314 328 329 309 314 302 310 310 330 320 316 335 312
261 256 264 269 272 271 273 278 287 284 292 293 294 304 303 303 319 317 299 320 324 328 312 305 320 314 311 314 315 302 334 336 316 312 306 341 305 313 305 326 302 337 344
272 265 264 265 270 276 270 274 277 283 287 288 293 303 301 301 310 309 316 318 323 317 324 326 310 327 315 316 319 299 324 335 322 308 322 324 311 311 310 309 323 313 312
268 260 255 262 270 269 266 273 280 285 283 294 294 299 294 301 294 317 307 304 312 322 318 321 332 298 323 325 318 322 299 328 308 337 313 319 297 310 315 324 318 322 319
263 251 260 260 262 285 272 271 273 288 295 301 292 293 292 294 301 314 298 301 307 307 310 315 301 321 320 325 304 315 335 334 323 307 304 321 294 309 306 304 329 315 322
250 266 264 266 280 280 271 272 288 288 292 292 292 286 286 288 292 288 296 313 304 302 292 299 312 311 315 318 302 294 313 325 311 309 306 305 311 303 297 316 314 326 345
259 264 259 260 269 276 265 278 283 287 290 290 295 286 286 284 293 291 295 299 294 297 301 299 304 311 316 315 316 293 310 298 299 314 290 318 309 315 318 317 335 346 345
262 263 262 269 275 279 275 277 286 280 282 281 292 284 271 271 284 293 289 295 299 297 302 302 289 303 316 314 303 291 315 294 305 289 287 313 289 316 305 320 290 299 316
269 270 261 259 267 275 274 280 289 274 290 289 284 291 283 286 268 287 292 287 274 302 280 295 302 314 309 285 304 302 303 286 286 318 321 315 304 303 281 293 335 280 292
266 262 257 252 271 258 263 267 274 280 269 280 284 287 288 285 278 268 277 303 274 278 297 297 301 306 302 306 296 290 284 319 311 324 285 309 317 293 329 284 309 305 344
253 257 257 274 272 269 268 268 271 277 270 268 271 283 273 284 289 292 281 286 295 294 300 297 279 298 299 304 302 294 295 316 319 316 318 288 297 301 304 273 306 305 314
253 288 252 247 270 257 262 268 269 274 268 278 282 279 284 278 279 277 290 289 296 288 294 284 298 293 297 305 301 305 313 317 315 285 321 324 319 297 297 306 329 279 339
268 231 266 247 259 254 270 262 269 271 276 256 260 282 270 276 285 284 287 286 283 299 284 290 295 301 297 304 302 296 311 314 302 316 280 280 324 311 326 328 330 334 336
273 242 261 262 264 261 262 263 269 270 268 280 280 288 277 274 285 278 282 275 288 292 289 284 300 305 301 299 291 309 303 311 310 317 276 277 321 318 311 306 317 315 282
249 251 259 254 260 250 254 271 266 258 266 276 271 265 278 275 279 287 277 281 277 291 285 291 290 301 303 307 303 287 307 309 311 298 277 317 302 290 323 289 326 311 319
238 266 244 251 244 254 250 271 271 277 270 266 271 268 285 285 275 276 282 296 285 284 293 290 293 281 296 297 301 305 299 309 294 278 312 286 318 322 286 322 314 305 311
236 269 250 244 240 268 273 272 260 265 272 270 275 264 268 284 274 284 281 287 294 282 290 285 300 299 304 303 302 296 298 307 308 308 304 298 291 302 288 308 317 315 309
250 255 269 264 254 271 255 264 270 274 267 275 266 264 286 284 281 288 285 285 290 291 289 297 300 300 298 295 295 297 301 306 305 296 310 291 294 303 319 313 303 317 321
266 272 269 226 272 230 268 278 250 262 271 273 279 281 270 275 276 290 282 282 288 292 297 293 291 298 285 295 297 299 303 286 301 306 288 281 314 296 318 288 311 296 313
238 255 269 235 267 278 281 280 273 276 275 276 274 266 280 272 272 284 284 286 291 288 291 286 291 296 292 298 294 289 296 301 295 298 293 296 309 308 305 308 315 316 314
232 231 273 244 256 243 267 247 256 278 272 272 278 276 276 280 276 287 289 286 288 285 286 286 290 289 290 293 292 294 297 292 302 303 304 306 289 304 307 313 313 303 318
240 256 236 236 248 270 256 270 267 273 264 267 275 267 279 283 275 281 279 277 285 285 284 284 289 290 286 286 289 288 283 296 298 297 288 298 305 306 308 307 313 312 312
272 252 260 255 266 270 255 275 255 260 264 267 264 276 278 275 276 276 281 283 285 282 284 279 280 285 283 284 292 294 297 290 298 301 285 304 307 308 309 307 308 312 313
247 261 271 257 249 264 271 256 273 276 258 274 276 274 283 279 274 274 279 279 278 278 278 279 278 285 276 286 290 294 281 292 295 300 300 305 306 306 305 307 307 307 309